OBJECT L, 68426

Orbit data source: Space-Track

You're viewing an uncataloged RSO

Recently launched and/or uncataloged RSOs may have evolving metadata. Metadata may include the following, but is not limited to: Owner, Manufacturer, Bus, Motor, and Mission.

OBJECT L, 68426 is a satellite in SSO that was launched on Mon, 30 Mar 2026 UTC via an FALCON 9 launch vehicle from the Air Force Western Test Range (AFWTR). Unknown objects in Earth's orbit typically refer to objects detected orbiting the Earth but have not yet been identified or cataloged. These objects could be anything from previously untracked satellites, spent rocket stages, debris from satellite collisions, or even natural meteoroids temporarily captured by Earth's gravity.

Loading next visibility...
Identifier
68426, 2026-067L
Orbit
SSO
Country
Flag of TBDTBD
Related business
Manufacturer
Endurosat
Mission
Operational Civil Technology
Bus & Motor
CUBESAT 16U, Unknown motor
Mass
~20 kg wet, ~20 kg dry
Launch date (UTC)
2026-03-30 (6 months ago)
Launch vehicle
FALCON 9
Launch site
Air Force Western Test Range (AFWTR)
Object type
Unknown
Shape & HBR
Box, 0.1 m
Radar Cross Section
0.015 m², Medium (>0.1 m² and < 1m²)

Expand to show TLE details & history
Last TLE update: 2 days ago

TLE from 2 days ago
0 OBJECT L
1 68426U 26067L   26262.12931605  .00011314  00000-0  50461-3 0  9991
2 68426  97.4641 219.7284 0003125  61.0749 299.0800 15.21561554 26225
Epoch: 2026-09-19T03:06Z
TLE epoch observation values (Epoch: 2026-09-19T03:06:12.906Z)
Latitude
-0.00003°
Longitude
175.13235°
Altitude
503.176 km
Speed
7.613 km/s
True Right ascension
14h 38m 54s
True Declination
0° 00' 00"
Sunlit
Object was in daylight at epoch
Visualization orbit readout
Latitude
Unknown
Longitude
Unknown
Altitude
Unknown
Speed
Unknown
Apparent Right ascension
Unknown
Apparent Declination
Unknown
Sunlit
N/A
Visualization observer readout
Local Sidereal Time
09:41:53
Azimuth
Unknown
Elevation
Unknown
Doppler factor
Unknown
Orbital elements
Apogee altitude
500.245 km
Perigee altitude
495.947 km
Semi-major axis
6,876.233 km
Eccentricity
0.00031
Inclination
97.4641°
RAAN
219.7284°
Arg. of periapsis
61.0749°
True anomaly
299.0487°
Mean anomaly
299.08°
Eccentric anomaly
299.06435°
Mean motion
3.80643 °/min
Orbital period
94.58 mins
BSTAR
0.00050461
Loading maneuver chart data...
Computing Atmospheric mass density...
Loading historical data...
Loading historical data...
Loading historical data...
Loading historical data...
Loading historical data...
Loading historical data...
Loading historical data...

Documentation

Showing up to 5 results
|